Regional Weather Roundup
Issued by NWS State College, PA

Home | Current Version | Previous Version | Text Only | Print | Product List | Glossary Off
Versions: 1 2 3 4 5 6 7 8 9 10 11 12 13 14 15 16 17 18 19 20 21 22 23 24 25 26 27 28 29 30 31 32 33 34 35 36 37 38 39 40 41 42 43 44 45 46 47 48 49 50

000
ASUS41 KCTP 301903
RWRCTP

REGIONAL WEATHER ROUNDUP
NATIONAL WEATHER SERVICE STATE COLLEGE PA
300 PM EDT THU JUL 30 2015

Note: "fair" indicates few or no clouds below 12,000 feet with no
significant weather and/or obstructions to visibility.

* = STATION THAT DOES NOT REPORT PRECIPITATION /E.G. RAIN...SNOW...ETC/
    THUNDER OR FOG.

PAZ002>004-007>009-013>016-020>023-029>032-302000-
WESTERN PENNSYLVANIA

CITY           SKY/WX    TMP DP  RH WIND       PRES   REMARKS
ERIE           LGT RAIN  81  62  52 W14G24    29.94F
MEADVILLE      LGT RAIN  83  53  35 W14       29.97F
FRANKLIN*      PTSUNNY   81  57  44 W12G17    29.99S
NEW CASTLE     FAIR      86  59  39 W8        29.97F
BEAVER COUNTY  MOSUNNY   84  55  37 W8G17     29.98F
BUTLER*        MOSUNNY   84  57  39 NW9G18    29.98F
PITTSBURGH INT MOSUNNY   87  53  31 NW14      29.97F
PITTSBURGH     SUNNY     85  49  28 W9G17     29.96F
INDIANA*       SUNNY     82  59  44 W8G17     29.98F
LATROBE        MOSUNNY   84  55  37 W12G23    29.96F
WASHINGTON CO* NOT AVBL
$$

PAZ004>006-010>012-017>019-024>028-033>037-041-042-045-046-049>053-302000-
CENTRAL PENNSYLVANIA

CITY           SKY/WX    TMP DP  RH WIND       PRES   REMARKS
BRADFORD       PTSUNNY   79  54  41 W15       29.96F
DUBOIS         MOSUNNY   83  56  39 W14G20    29.95F
CLEARFIELD     SUNNY     85  55  35 W14G22    29.94F
JOHNSTOWN      MOSUNNY   81  55  40 W10       29.99F
ALTOONA        MOSUNNY   82  57  42 NW13      29.95S
STATE COLLEGE  SUNNY     82  61  47 W14       29.92S
WILLIAMSPORT   MOSUNNY   90  59  35 NW15      29.82F
SELINSGROVE    MOSUNNY   87  73  62 VRB6      29.86S
FT INDIANTOWN  CLOUDY    82  74  77 SW9       29.86F
CAPITAL CITY   CLOUDY    85  74  69 VRB5      29.85F
HARRISBURG     CLOUDY    84  75  74 SW5       29.84F
YORK           CLOUDY    81  75  82 SW7       29.86F
$$

PAZ038>040-043-044-047-048-054-055-060>062-067>071-302000-
EASTERN PENNSYLVANIA

CITY           SKY/WX    TMP DP  RH WIND       PRES   REMARKS
SCRANTON       LGT RAIN  84  71  65 SW6G17    29.85F
MOUNT POCONO     N/A     75  70  84 W7        29.92S
ALLENTOWN      LGT RAIN  76  72  87 W6        29.86F
QUAKERTOWN*    CLOUDY    73  72  94 CALM      29.89F
READING        LGT RAIN  78  73  84 SW5       29.85F
LANCASTER      CLOUDY    77  73  87 CALM      29.86F
COATESVILLE    LGT RAIN  73  73 100 SE3       29.89F
POTTSTOWN      RAIN      74  74 100 S3        29.88F FOG
BLUE BELL      CLOUDY    84  75  74 W9        29.86R
DOYLESTOWN     CLOUDY    77  70  79 NW7G22    29.86R
WILLOW GROVE   NOT AVBL
NORTH PHILA    CLOUDY    88  71  57 SW13      29.85F
PHILADELPHIA   LGT RAIN  84  77  79 W13G23    29.85F
$$


USA.gov is the U.S. government's official web portal to all federal, state and local government web resources and services.